Kirkwall, United Kingdom

9:39 AM GMT on February 21, 2018 (GMT +0000)
Kirkwall

Weather History for EGPA - March, 2013

Change the Weather History Date:

Monday, March 11, 2013

  Actual Average (EGPC) Record (EGPC)
Temperature  
Mean Temperature 34 °F -  
Max Temperature 40 °F 43 °F 55 °F (2017)
Min Temperature 28 °F 36 °F 27 °F (2013)
Degree Days  
Heating Degree Days 31    
Moisture  
Dew Point 23 °F    
Average Humidity 63    
Maximum Humidity 87    
Minimum Humidity 36    
Precipitation  
Precipitation 0.00 in - - ()
Sea Level Pressure  
Sea Level Pressure 30.20 in    
Wind  
Wind Speed 8 mph ()    
Max Wind Speed 18 mph    
Max Gust Speed -    
Visibility 7.1 miles    
Events Rain , Snow    
Averages and records for this station are not official NWS values.
T = Trace of Precipitation, MM = Missing Value Source: Averaged Metar Reports

Daily Weather History Graph

Daily Weather History Graph

Search for Another Location

Airport or City:

Trip Planner

Search our weather history database for the weather conditions in past years. The results will help you decide how hot, cold, wet, or windy it might be!

Date:

Astronomy

Mar. 11, 2013 Rise Set
Actual Time 6:39 AM GMT 6:05 PM GMT
Civil Twilight 5:59 AM GMT 6:45 PM GMT
Nautical Twilight 5:12 AM GMT 7:32 PM GMT
Astronomical Twilight 4:23 AM GMT 8:21 PM GMT
Moon 6:02 AM GMT (3/11) 6:11 PM GMT (3/11)
Length of Visible Light 12h 46m
Length of Day
11h 25m
Waning Crescent, 0% of the Moon is Illuminated
Mar 11
Waning Crescent
Mar 11
New
Mar 19
First Quarter
Mar 27
Full
Apr 3
Last Quarter

Hourly Weather History & Observations

Time (GMT) Temp. Windchill Dew Point Humidity Pressure Visibility Wind Dir Wind Speed Gust Speed Precip Events Conditions
12:20 AM 32.0 °F 22.5 °F 17.6 °F 55% 30.24 in 6.2 mi East 12.7 mph - N/A   Unknown
12:50 AM 32.0 °F 23.0 °F 14.0 °F 48% 30.24 in 6.2 mi East 11.5 mph - N/A   Unknown
1:20 AM 32.0 °F 23.6 °F 15.8 °F 51% 30.24 in 6.2 mi East 10.4 mph - N/A   Unknown
1:50 AM 32.0 °F 23.0 °F 15.8 °F 51% 30.24 in 6.2 mi East 11.5 mph - N/A   Unknown
2:20 AM 32.0 °F 23.6 °F 15.8 °F 51% 30.24 in 6.2 mi East 10.4 mph - N/A   Unknown
2:50 AM 28 °F - 16 °F 48% 30.24 in 14 mi ENE 10.4 mph - -  
2:50 AM 30.2 °F 22.6 °F 17.6 °F 60% 30.24 in 6.2 mi East 8.1 mph - N/A   Unknown
3:20 AM 30.2 °F 23.4 °F 17.6 °F 60% 30.24 in 6.2 mi East 6.9 mph - N/A   Unknown
3:50 AM 30.2 °F 22.6 °F 17.6 °F 60% 30.24 in 6.2 mi ENE 8.1 mph - N/A   Unknown
4:20 AM 30.2 °F 22.6 °F 19.4 °F 64% 30.24 in 6.2 mi ENE 8.1 mph - N/A   Unknown
4:50 AM 30.2 °F 22.6 °F 19.4 °F 64% 30.24 in 6.2 mi East 8.1 mph - N/A   Unknown
5:20 AM 30.2 °F 24.3 °F 19.4 °F 64% 30.24 in 6.2 mi ENE 5.8 mph - N/A   Partly Cloudy
5:50 AM 28 °F - 17 °F 52% 30.24 in 14 mi ENE 9.2 mph - -  
5:50 AM 30.2 °F 22.6 °F 19.4 °F 64% 30.24 in 6.2 mi ENE 8.1 mph - N/A   Partly Cloudy
6:20 AM 30.2 °F 24.3 °F 19.4 °F 64% 30.21 in 6.2 mi ENE 5.8 mph - N/A   Partly Cloudy
6:50 AM 30.2 °F 23.4 °F 17.6 °F 60% 30.24 in 6.2 mi ENE 6.9 mph - N/A   Partly Cloudy
7:20 AM 32.0 °F 26.4 °F 19.4 °F 60% 30.24 in 6.2 mi ENE 5.8 mph - N/A   Partly Cloudy
7:50 AM 33.8 °F 28.6 °F 21.2 °F 60% 30.24 in 6.2 mi ENE 5.8 mph - N/A   Partly Cloudy
8:20 AM 35.6 °F 31.7 °F 21.2 °F 56% 30.24 in 6.2 mi East 4.6 mph - N/A   Partly Cloudy
8:50 AM 36 °F - 20 °F 39% 30.25 in 15 mi NE 10.4 mph - -  
8:50 AM 37.4 °F 30.8 °F 21.2 °F 52% 30.24 in 6.2 mi NE 9.2 mph - N/A   Partly Cloudy
9:20 AM 39.2 °F 34.2 °F 21.2 °F 49% 30.24 in 6.2 mi ENE 6.9 mph - N/A   Partly Cloudy
9:50 AM 39.2 °F 34.2 °F 21.2 °F 49% 30.24 in 6.2 mi NE 6.9 mph - N/A   Partly Cloudy
10:20 AM 39.2 °F 34.2 °F 21.2 °F 49% 30.24 in 6.2 mi NNE 6.9 mph - N/A   Partly Cloudy
10:50 AM 39.2 °F 34.2 °F 19.4 °F 45% 30.24 in 6.2 mi NNE 6.9 mph - N/A   Partly Cloudy
11:20 AM 39.2 °F 34.2 °F 21.2 °F 49% 30.24 in 6.2 mi NE 6.9 mph - N/A   Partly Cloudy
11:50 AM 38 °F - 21 °F 36% 30.24 in 16 mi NNE 8.1 mph - -   Scattered Clouds
11:50 AM 39.2 °F 35.0 °F 21.2 °F 49% 30.24 in 6.2 mi NNE 5.8 mph - N/A   Partly Cloudy
12:20 PM 39.2 °F 35.0 °F 21.2 °F 49% 30.21 in 6.2 mi NNE 5.8 mph - N/A   Partly Cloudy
12:50 PM 41.0 °F 37.1 °F 21.2 °F 45% 30.24 in 6.2 mi NE 5.8 mph - N/A   Scattered Clouds
1:20 PM 39.2 °F 35.0 °F 23.0 °F 52% 30.21 in 6.2 mi NNE 5.8 mph - N/A   Scattered Clouds
1:50 PM 39.2 °F 34.2 °F 24.8 °F 56% 30.21 in 6.2 mi North 6.9 mph - N/A   Scattered Clouds
2:20 PM 39.2 °F 35.9 °F 23.0 °F 52% 30.21 in 6.2 mi NNW 4.6 mph - N/A   Scattered Clouds
2:50 PM 39 °F - 22 °F 38% 30.20 in 22 mi NW 6.9 mph - -   Scattered Clouds
2:50 PM 39.2 °F 35.0 °F 23.0 °F 52% 30.21 in 6.2 mi NW 5.8 mph - N/A   Partly Cloudy
3:20 PM 41.0 °F 33.9 °F 26.6 °F 57% 30.18 in 6.2 mi NW 12.7 mph - N/A   Scattered Clouds
3:50 PM 39.2 °F 32.0 °F 28.4 °F 65% 30.18 in 6.2 mi WNW 11.5 mph - N/A   Scattered Clouds
4:20 PM 37.4 °F 31.4 °F 28.4 °F 70% 30.15 in 6.2 mi NNW 8.1 mph - N/A   Partly Cloudy
4:50 PM 37.4 °F 30.3 °F 28.4 °F 70% 30.15 in 6.2 mi NNW 10.4 mph - N/A   Partly Cloudy
5:20 PM 37.4 °F 29.8 °F 30.2 °F 75% 30.15 in 6.2 mi NNW 11.5 mph - N/A   Partly Cloudy
5:50 PM 35 °F - 30 °F 75% 30.17 in 13 mi NW 11.5 mph - -   Scattered Clouds
5:50 PM 35.6 °F 27.1 °F 30.2 °F 81% 30.15 in 6.2 mi NNW 12.7 mph - N/A   Partly Cloudy
6:20 PM 35.6 °F 25.2 °F 30.2 °F 81% 30.15 in 6.2 mi North 18.4 mph - N/A Snow Light Snow Showers
6:50 PM 35.6 °F 32.8 °F 30.2 °F 81% 30.15 in 6.2 mi North 3.5 mph - N/A   Partly Cloudy
7:20 PM 32.0 °F - 26.6 °F 80% 30.12 in 6.2 mi Variable 2.3 mph - N/A   Partly Cloudy
7:50 PM 33.8 °F 23.9 °F 30.2 °F 87% 30.12 in 1.7 mi NNW 15.0 mph - N/A Snow Light Snow
8:20 PM 32.0 °F 27.5 °F 28.4 °F 87% 30.12 in 6.2 mi NW 4.6 mph - N/A   Mostly Cloudy
8:50 PM 32 °F - 29 °F 86% 30.14 in 12 mi WNW 8.1 mph - - Snow Snow
8:50 PM 32.0 °F 24.2 °F 28.4 °F 87% 30.12 in 6.2 mi NW 9.2 mph - N/A   Partly Cloudy
9:20 PM 32.0 °F 24.8 °F 28.4 °F 87% 30.12 in 6.2 mi WNW 8.1 mph - N/A   Partly Cloudy
9:50 PM 35.6 °F 27.5 °F 30.2 °F 81% 30.12 in 6.2 mi North 11.5 mph - N/A   Scattered Clouds
10:20 PM 35.6 °F 28.6 °F 30.2 °F 81% 30.09 in 6.2 mi NNW 9.2 mph - N/A   Partly Cloudy
10:50 PM 33.8 °F 25.8 °F 30.2 °F 87% 30.12 in - NW 10.4 mph - N/A Rain Light Rain
11:20 PM 35.6 °F 30.7 °F 30.2 °F 81% 30.09 in 6.2 mi NNW 5.8 mph - N/A   Mostly Cloudy
11:50 PM 34 °F - 30 °F 79% 30.10 in 13 mi WNW 6.9 mph - - Rain Rain
11:50 PM 35.6 °F 29.9 °F 30.2 °F 81% 30.09 in 6.2 mi NW 6.9 mph - N/A   Mostly Cloudy